Location: Minneapolis
(45.0000°N, 93.0000°W)
Time: 09:14:42
(UTC-05:00)

Tiangong 2 - Visible Passes

Search period start: 18 July 2018 00:00
Search period end: 28 July 2018 00:00
Orbit: 386 x 394 km, 42.8° (Epoch: 18 July)

Date Brightness Start Highest point End Pass type
(mag) Time Alt. Az. Time Alt. Az. Time Alt. Az.
18 Jul 1.5 22:30:16 10° W 22:33:19 45° SSW 22:34:18 32° SE visible
19 Jul 1.3 21:32:35 10° W 21:35:42 53° S 21:38:48 10° ESE visible
19 Jul 2.9 23:09:37 10° W 23:11:19 20° SW 23:11:19 20° SW visible
20 Jul 2.0 22:11:46 10° W 22:14:41 32° SSW 22:16:02 22° SSE visible
21 Jul 3.3 22:51:34 10° WSW 22:53:04 15° SW 22:53:04 15° SW visible
22 Jul 2.8 21:53:25 10° WSW 21:55:58 22° SSW 21:57:48 14° SSE visible
24 Jul 3.5 21:35:24 10° WSW 21:37:08 14° SSW 21:38:52 10° S visible
